| time (UTC) | temp C | wind direction | speed KPH | gust KPH | rain 1hr cm | rain 24hr cm | rain mn cm | humidity % | barometer mb |
| 20260510071650 | 18 | 101 | 4.8 | 17.7 | 0.00 | 0.00 | 0.00 | 80 | 1011.9 |
| 20260510071147 | 18 | 42 | 8.0 | 14.5 | 0.00 | 0.00 | 0.00 | 80 | 1012.0 |
| 20260510070644 | 18 | 158 | 3.2 | 11.3 | 0.00 | 0.00 | 0.00 | 80 | 1012.2 |
| 20260510070142 | 18 | 80 | 8.0 | 14.5 | 0.00 | 0.00 | 0.00 | 79 | 1012.3 |
| 20260510065637 | 18 | 55 | 4.8 | 19.3 | 0.00 | 0.00 | 0.00 | 78 | 1012.3 |
| 20260510064826 | 18 | 53 | 3.2 | 9.7 | 0.00 | 0.00 | 0.00 | 79 | 1012.5 |
| 20260510064325 | 18 | 53 | 3.2 | 9.7 | 0.00 | 0.00 | 0.00 | 79 | 1012.5 |
| 20260510063820 | 18 | 28 | 4.8 | 19.3 | 0.00 | 0.00 | 0.00 | 79 | 1012.9 |
| 20260510063317 | 18 | 33 | 9.7 | 14.5 | 0.00 | 0.00 | 0.00 | 78 | 1012.8 |
| 20260510062814 | 18 | 67 | 8.0 | 19.3 | 0.00 | 0.00 | 0.00 | 79 | 1012.7 |
| 20260510062309 | 18 | 56 | 11.3 | 16.1 | 0.00 | 0.00 | 0.00 | 79 | 1012.7 |
| 20260510061805 | 18 | 72 | 6.4 | 12.9 | 0.00 | 0.00 | 0.00 | 81 | 1012.8 |
| 20260510061302 | 18 | 67 | 12.9 | 25.7 | 0.00 | 0.00 | 0.00 | 80 | 1012.7 |
| 20260510060758 | 18 | 14 | 6.4 | 12.9 | 0.00 | 0.00 | 0.00 | 80 | 1012.7 |
| 20260510060255 | 18 | 75 | 8.0 | 9.7 | 0.00 | 0.00 | 0.00 | 79 | 1012.4 |
| 20260510055752 | 19 | 80 | 3.2 | 19.3 | 0.00 | 0.00 | 0.00 | 77 | 1012.2 |
| 20260510055250 | 19 | 78 | 3.2 | 25.7 | 0.00 | 0.00 | 0.00 | 76 | 1012.5 |
| 20260510054749 | 20 | 49 | 9.7 | 29.0 | 0.00 | 0.00 | 0.00 | 74 | 1012.4 |
| 20260510054246 | 20 | 31 | 11.3 | 17.7 | 0.00 | 0.00 | 0.00 | 72 | 1012.3 |
| 20260510053745 | 20 | 34 | 9.7 | 17.7 | 0.00 | 0.00 | 0.00 | 71 | 1012.4 |
| 20260510053242 | 21 | 56 | 6.4 | 17.7 | 0.00 | 0.00 | 0.00 | 71 | 1012.4 |
| 20260510052738 | 21 | 29 | 9.7 | 19.3 | 0.00 | 0.00 | 0.00 | 72 | 1012.4 |
| 20260510052234 | 21 | 60 | 1.6 | 12.9 | 0.00 | 0.00 | 0.00 | 75 | 1012.3 |
| 20260510051730 | 21 | 46 | 6.4 | 12.9 | 0.00 | 0.00 | 0.00 | 76 | 1012.2 |
| 20260510051227 | 21 | 14 | 6.4 | 14.5 | 0.00 | 0.00 | 0.00 | 78 | 1012.3 |
| 20260510050723 | 20 | 71 | 8.0 | 12.9 | 0.00 | 0.00 | 0.00 | 80 | 1012.6 |
| 20260510050221 | 20 | 37 | 11.3 | 16.1 | 0.00 | 0.00 | 0.00 | 80 | 1012.1 |
| 20260510045718 | 20 | 68 | 6.4 | 11.3 | 0.00 | 0.58 | 0.58 | 81 | 1011.8 |
| 20260510045214 | 20 | 101 | 12.9 | 20.9 | 0.00 | 0.58 | 0.58 | 82 | 1012.2 |
| 20260510044710 | 20 | 95 | 8.0 | 16.1 | 0.00 | 0.58 | 0.58 | 82 | 1012.2 |
| 20260510044209 | 20 | 64 | 3.2 | 9.7 | 0.00 | 0.58 | 0.58 | 80 | 1011.9 |
| 20260510043703 | 20 | 106 | 4.8 | 19.3 | 0.00 | 0.58 | 0.58 | 79 | 1010.3 |
| 20260510043200 | 20 | 204 | 4.8 | 11.3 | 0.00 | 0.58 | 0.58 | 78 | 1009.6 |
| 20260510042658 | 20 | 91 | 8.0 | 11.3 | 0.00 | 0.58 | 0.58 | 80 | 1010.0 |
| 20260510042154 | 20 | 164 | 3.2 | 12.9 | 0.00 | 0.58 | 0.58 | 81 | 1009.5 |
| 20260510041651 | 20 | 110 | 6.4 | 16.1 | 0.00 | 0.58 | 0.58 | 82 | 1009.4 |
| 20260510041148 | 20 | 57 | 8.0 | 12.9 | 0.00 | 0.58 | 0.58 | 81 | 1009.3 |
| 20260510040645 | 20 | 43 | 4.8 | 16.1 | 0.00 | 0.58 | 0.58 | 81 | 1009.3 |
| 20260510040142 | 20 | 81 | 8.0 | 22.5 | 0.00 | 0.58 | 0.58 | 82 | 1009.3 |
| 20260510035637 | 20 | 94 | 12.9 | 19.3 | 0.00 | 0.58 | 0.58 | 84 | 1009.5 |
| 20260510035133 | 20 | 75 | 6.4 | 20.9 | 0.00 | 0.58 | 0.58 | 85 | 1009.5 |
| 20260510034630 | 19 | 85 | 22.5 | 24.1 | 0.00 | 0.58 | 0.58 | 86 | 1009.8 |
| 20260510034127 | 19 | 78 | 12.9 | 17.7 | 0.00 | 0.58 | 0.58 | 87 | 1009.7 |
| 20260510033623 | 19 | 79 | 8.0 | 22.5 | 0.00 | 0.58 | 0.58 | 86 | 1010.1 |
| 20260510033121 | 18 | 83 | 11.3 | 27.4 | 0.00 | 0.58 | 0.58 | 86 | 1010.4 |
| 20260510032617 | 18 | 95 | 12.9 | 17.7 | 0.00 | 0.58 | 0.58 | 86 | 1010.2 |
| 20260510032113 | 18 | 76 | 20.9 | 30.6 | 0.00 | 0.58 | 0.58 | 86 | 1010.3 |
| 20260510031607 | 18 | 79 | 20.9 | 25.7 | 0.00 | 0.58 | 0.58 | 89 | 1010.5 |
| 20260510031104 | 18 | 110 | 16.1 | 16.1 | 0.00 | 0.58 | 0.58 | 90 | 1010.4 |
| 20260510030559 | 18 | 56 | 3.2 | 24.1 | 0.00 | 0.58 | 0.58 | 90 | 1010.3 |
| 20260510030057 | 18 | 96 | 14.5 | 19.3 | 0.00 | 0.58 | 0.58 | 91 | 1010.5 |
| 20260510025554 | 17 | 34 | 4.8 | 27.4 | 0.23 | 0.58 | 0.58 | 91 | 1010.6 |
| 20260510025052 | 18 | 50 | 9.7 | 24.1 | 0.84 | 0.58 | 0.58 | 91 | 1010.2 |
| 20260510024548 | 18 | 56 | 20.9 | 24.1 | 2.29 | 0.56 | 0.56 | 90 | 1009.6 |
| 20260510024044 | 19 | 66 | 19.3 | 24.1 | 1.98 | 0.43 | 0.43 | 86 | 1010.4 |
| 20260510023541 | 20 | 68 | 8.0 | 16.1 | 0.79 | 0.15 | 0.15 | 81 | 1011.0 |
| 20260510023038 | 23 | 102 | 11.3 | 16.1 | 0.53 | 0.10 | 0.10 | 70 | 1010.5 |
| 20260510022537 | 26 | 16 | 4.8 | 17.7 | 0.00 | 0.00 | 0.00 | 52 | 1009.5 |
| 20260510022031 | 26 | 61 | 9.7 | 17.7 | 0.00 | 0.00 | 0.00 | 51 | 1009.1 |
| 20260510021528 | 26 | 70 | 12.9 | 16.1 | 0.00 | 0.00 | 0.00 | 51 | 1010.2 |
| 20260510021026 | 25 | 92 | 11.3 | 20.9 | 0.00 | 0.00 | 0.00 | 53 | 1009.2 |
| 20260510020520 | 26 | 291 | 3.2 | 4.8 | 0.00 | 0.00 | 0.00 | 53 | 1009.1 |
| 20260510020016 | 26 | 304 | 0.0 | 3.2 | 0.00 | 0.00 | 0.00 | 52 | 1008.2 |
| 20260510015512 | 26 | 112 | 6.4 | 11.3 | 0.00 | 0.00 | 0.00 | 50 | 1007.7 |
| 20260510015008 | 26 | 66 | 4.8 | 9.7 | 0.00 | 0.00 | 0.00 | 50 | 1007.6 |
| 20260510014505 | 26 | 102 | 4.8 | 9.7 | 0.00 | 0.00 | 0.00 | 49 | 1007.6 |
| 20260510014002 | 27 | 91 | 6.4 | 12.9 | 0.00 | 0.00 | 0.00 | 48 | 1007.3 |
| 20260510013456 | 27 | 97 | 6.4 | 9.7 | 0.00 | 0.00 | 0.00 | 48 | 1007.8 |
| 20260510012952 | 27 | 116 | 6.4 | 6.4 | 0.00 | 0.00 | 0.00 | 47 | 1007.8 |
| 20260510012447 | 27 | 81 | 4.8 | 8.0 | 0.00 | 0.00 | 0.00 | 47 | 1007.7 |
| 20260510011943 | 27 | 99 | 4.8 | 6.4 | 0.00 | 0.00 | 0.00 | 47 | 1007.5 |
| 20260510011442 | 27 | 41 | 6.4 | 8.0 | 0.00 | 0.00 | 0.00 | 46 | 1007.2 |
| 20260510010939 | 27 | 105 | 1.6 | 8.0 | 0.00 | 0.00 | 0.00 | 46 | 1007.0 |
| 20260510010437 | 27 | 70 | 4.8 | 9.7 | 0.00 | 0.00 | 0.00 | 46 | 1007.2 |
| 20260510005933 | 27 | 82 | 6.4 | 12.9 | 0.00 | 0.00 | 0.00 | 45 | 1007.0 |
| 20260510005429 | 27 | 102 | 8.0 | 11.3 | 0.00 | 0.00 | 0.00 | 44 | 1007.0 |
| 20260510004927 | 28 | 86 | 3.2 | 11.3 | 0.00 | 0.00 | 0.00 | 44 | 1007.2 |
| 20260510004424 | 28 | 101 | 4.8 | 9.7 | 0.00 | 0.00 | 0.00 | 43 | 1007.5 |
| 20260510003922 | 28 | 97 | 3.2 | 4.8 | 0.00 | 0.00 | 0.00 | 42 | 1007.6 |
| 20260510003419 | 28 | 235 | 3.2 | 6.4 | 0.00 | 0.00 | 0.00 | 42 | 1007.5 |
| 20260510002918 | 28 | 138 | 3.2 | 9.7 | 0.00 | 0.00 | 0.00 | 42 | 1007.3 |
| 20260510002415 | 28 | 132 | 4.8 | 8.0 | 0.00 | 0.00 | 0.00 | 42 | 1007.2 |
| 20260510001911 | 28 | 96 | 9.7 | 11.3 | 0.00 | 0.00 | 0.00 | 41 | 1007.1 |
| 20260510001409 | 28 | 105 | 8.0 | 14.5 | 0.00 | 0.00 | 0.00 | 41 | 1007.0 |
| 20260510000906 | 28 | 87 | 3.2 | 12.9 | 0.00 | 0.00 | 0.00 | 41 | 1007.3 |
| 20260510000403 | 28 | 50 | 4.8 | 19.3 | 0.00 | 0.00 | 0.00 | 41 | 1007.5 |
| 20260509235859 | 29 | 100 | 8.0 | 11.3 | 0.00 | 0.00 | 0.00 | 41 | 1007.3 |
| 20260509235356 | 29 | 87 | 8.0 | 14.5 | 0.00 | 0.00 | 0.00 | 41 | 1007.4 |
| 20260509234852 | 29 | 60 | 9.7 | 12.9 | 0.00 | 0.00 | 0.00 | 42 | 1007.4 |
| 20260509234349 | 29 | 151 | 4.8 | 12.9 | 0.00 | 0.00 | 0.00 | 42 | 1007.2 |
| 20260509233847 | 29 | 164 | 6.4 | 17.7 | 0.00 | 0.00 | 0.00 | 42 | 1007.3 |
| 20260509233345 | 29 | 71 | 4.8 | 16.1 | 0.00 | 0.00 | 0.00 | 42 | 1007.0 |
| 20260509232840 | 30 | 62 | 6.4 | 17.7 | 0.00 | 0.00 | 0.00 | 42 | 1007.2 |
| 20260509232338 | 30 | 95 | 11.3 | 19.3 | 0.00 | 0.00 | 0.00 | 41 | 1007.2 |
| 20260509231834 | 30 | 99 | 8.0 | 22.5 | 0.00 | 0.00 | 0.00 | 42 | 1007.3 |
| 20260509231331 | 30 | 158 | 6.4 | 9.7 | 0.00 | 0.00 | 0.00 | 42 | 1007.3 |
| 20260509230829 | 30 | 88 | 3.2 | 11.3 | 0.00 | 0.00 | 0.00 | 43 | 1007.5 |
| 20260509230325 | 30 | 57 | 3.2 | 20.9 | 0.00 | 0.00 | 0.00 | 43 | 1007.5 |
| 20260509225820 | 30 | 129 | 4.8 | 14.5 | 0.00 | 0.00 | 0.00 | 42 | 1007.7 |
| 20260509225318 | 30 | 86 | 4.8 | 17.7 | 0.00 | 0.00 | 0.00 | 42 | 1007.5 |
| 20260509224814 | 30 | 184 | 1.6 | 12.9 | 0.00 | 0.00 | 0.00 | 43 | 1007.7 |
| 20260509224310 | 30 | 72 | 8.0 | 14.5 | 0.00 | 0.00 | 0.00 | 43 | 1007.6 |
| 20260509223806 | 30 | 82 | 6.4 | 8.0 | 0.00 | 0.00 | 0.00 | 44 | 1007.7 |
| 20260509223304 | 30 | 95 | 6.4 | 16.1 | 0.00 | 0.00 | 0.00 | 44 | 1007.8 |
| 20260509222800 | 30 | 106 | 8.0 | 9.7 | 0.00 | 0.00 | 0.00 | 43 | 1008.1 |
| 20260509222256 | 30 | 51 | 1.6 | 9.7 | 0.00 | 0.00 | 0.00 | 43 | 1008.2 |
| 20260509221752 | 30 | 67 | 4.8 | 8.0 | 0.00 | 0.00 | 0.00 | 44 | 1008.2 |
| 20260509221249 | 30 | 235 | 0.0 | 6.4 | 0.00 | 0.00 | 0.00 | 43 | 1008.2 |
| 20260509220744 | 30 | 96 | 6.4 | 9.7 | 0.00 | 0.00 | 0.00 | 43 | 1008.4 |
| 20260509220241 | 31 | 110 | 1.6 | 14.5 | 0.00 | 0.00 | 0.00 | 43 | 1008.4 |
| 20260509215736 | 30 | 202 | 1.6 | 8.0 | 0.00 | 0.00 | 0.00 | 43 | 1008.4 |
| 20260509215233 | 30 | 117 | 8.0 | 11.3 | 0.00 | 0.00 | 0.00 | 42 | 1008.3 |
| 20260509214730 | 31 | 151 | 9.7 | 11.3 | 0.00 | 0.00 | 0.00 | 43 | 1008.3 |
| 20260509214227 | 30 | 225 | 1.6 | 8.0 | 0.00 | 0.00 | 0.00 | 43 | 1008.4 |
| 20260509213724 | 30 | 113 | 6.4 | 9.7 | 0.00 | 0.00 | 0.00 | 41 | 1008.5 |
| 20260509213219 | 31 | 72 | 9.7 | 9.7 | 0.00 | 0.00 | 0.00 | 40 | 1008.4 |
| 20260509212717 | 31 | 186 | 3.2 | 6.4 | 0.00 | 0.00 | 0.00 | 41 | 1008.5 |
| 20260509212214 | 31 | 71 | 4.8 | 8.0 | 0.00 | 0.00 | 0.00 | 42 | 1008.6 |
| 20260509211710 | 30 | 246 | 3.2 | 8.0 | 0.00 | 0.00 | 0.00 | 41 | 1008.9 |
| 20260509211207 | 31 | 53 | 9.7 | 12.9 | 0.00 | 0.00 | 0.00 | 40 | 1008.9 |
| 20260509210704 | 30 | 172 | 3.2 | 4.8 | 0.00 | 0.00 | 0.00 | 40 | 1009.1 |
| 20260509210201 | 31 | 67 | 1.6 | 3.2 | 0.00 | 0.00 | 0.00 | 42 | 1009.2 |
| 20260509205656 | 30 | 81 | 6.4 | 8.0 | 0.00 | 0.00 | 0.00 | 40 | 1009.0 |
| 20260509205155 | 31 | 262 | 3.2 | 8.0 | 0.00 | 0.00 | 0.00 | 39 | 1009.2 |
| 20260509204652 | 31 | 241 | 3.2 | 4.8 | 0.00 | 0.00 | 0.00 | 41 | 1009.5 |
| 20260509204148 | 31 | 137 | 1.6 | 8.0 | 0.00 | 0.00 | 0.00 | 37 | 1009.5 |
| 20260509203644 | 30 | 224 | 1.6 | 8.0 | 0.00 | 0.00 | 0.00 | 42 | 1009.3 |
| 20260509203143 | 31 | 128 | 6.4 | 11.3 | 0.00 | 0.00 | 0.00 | 39 | 1009.6 |
| 20260509202643 | 30 | 52 | 3.2 | 6.4 | 0.00 | 0.00 | 0.00 | 41 | 1009.5 |
| 20260509202138 | 30 | 215 | 3.2 | 6.4 | 0.00 | 0.00 | 0.00 | 45 | 1009.6 |
| 20260509201633 | 30 | 221 | 1.6 | 9.7 | 0.00 | 0.00 | 0.00 | 43 | 1009.4 |
| 20260509201131 | 30 | 101 | 4.8 | 8.0 | 0.00 | 0.00 | 0.00 | 42 | 1009.5 |
| 20260509200627 | 30 | 69 | 3.2 | 12.9 | 0.00 | 0.00 | 0.00 | 42 | 1009.5 |
| 20260509200123 | 30 | 63 | 3.2 | 4.8 | 0.00 | 0.00 | 0.00 | 46 | 1009.6 |
| 20260509195619 | 30 | 143 | 4.8 | 12.9 | 0.00 | 0.00 | 0.00 | 44 | 1009.5 |
| 20260509195113 | 30 | 0 | 0.0 | 9.7 | 0.00 | 0.00 | 0.00 | 43 | 1009.7 |
| 20260509194612 | 30 | 185 | 8.0 | 8.0 | 0.00 | 0.00 | 0.00 | 45 | 1010.0 |
| 20260509194111 | 30 | 109 | 3.2 | 4.8 | 0.00 | 0.00 | 0.00 | 47 | 1010.0 |
| 20260509193606 | 30 | 37 | 4.8 | 6.4 | 0.00 | 0.00 | 0.00 | 45 | 1010.1 |
| 20260509193102 | 30 | 233 | 4.8 | 8.0 | 0.00 | 0.00 | 0.00 | 42 | 1010.3 |
| 20260509192559 | 30 | 54 | 1.6 | 6.4 | 0.00 | 0.00 | 0.00 | 45 | 1010.1 |
| 20260509192054 | 29 | 18 | 3.2 | 8.0 | 0.00 | 0.00 | 0.00 | 50 | 1010.1 |
| 20260509191555 | 29 | 254 | 0.0 | 9.7 | 0.00 | 0.00 | 0.00 | 49 | 1010.5 |
| 20260509191051 | 29 | 57 | 3.2 | 9.7 | 0.00 | 0.00 | 0.00 | 47 | 1010.4 |
| 20260509190548 | 29 | 140 | 4.8 | 9.7 | 0.00 | 0.00 | 0.00 | 48 | 1010.5 |
| 20260509190046 | 28 | 32 | 1.6 | 4.8 | 0.00 | 0.00 | 0.00 | 50 | 1010.7 |
| 20260509185543 | 28 | 151 | 4.8 | 4.8 | 0.00 | 0.00 | 0.00 | 51 | 1010.6 |
| 20260509185039 | 28 | 123 | 3.2 | 9.7 | 0.00 | 0.00 | 0.00 | 53 | 1010.6 |
| 20260509184537 | 28 | 212 | 4.8 | 8.0 | 0.00 | 0.00 | 0.00 | 52 | 1010.8 |
| 20260509184033 | 28 | 259 | 1.6 | 8.0 | 0.00 | 0.00 | 0.00 | 54 | 1010.7 |
| 20260509183529 | 29 | 36 | 4.8 | 6.4 | 0.00 | 0.00 | 0.00 | 52 | 1010.8 |
| 20260509183025 | 28 | 39 | 4.8 | 6.4 | 0.00 | 0.00 | 0.00 | 57 | 1010.9 |
| 20260509182521 | 28 | 28 | 1.6 | 8.0 | 0.00 | 0.00 | 0.00 | 54 | 1010.9 |
| 20260509182018 | 28 | 234 | 3.2 | 9.7 | 0.00 | 0.00 | 0.00 | 58 | 1011.2 |
| 20260509181517 | 27 | 251 | 4.8 | 6.4 | 0.00 | 0.00 | 0.00 | 55 | 1010.9 |
| 20260509181014 | 27 | 96 | 4.8 | 8.0 | 0.00 | 0.00 | 0.00 | 58 | 1011.3 |
| 20260509180509 | 27 | 53 | 0.0 | 6.4 | 0.00 | 0.00 | 0.00 | 62 | 1011.0 |
| 20260509180007 | 27 | 119 | 1.6 | 8.0 | 0.00 | 0.00 | 0.00 | 59 | 1011.4 |
| 20260509175502 | 27 | 165 | 3.2 | 6.4 | 0.00 | 0.00 | 0.00 | 60 | 1011.6 |
| 20260509174959 | 27 | 249 | 3.2 | 6.4 | 0.00 | 0.00 | 0.00 | 59 | 1011.9 |
| 20260509174455 | 26 | 142 | 3.2 | 6.4 | 0.00 | 0.00 | 0.00 | 62 | 1011.8 |
| 20260509173950 | 27 | 147 | 3.2 | 8.0 | 0.00 | 0.00 | 0.00 | 62 | 1011.9 |
| 20260509173444 | 27 | 64 | 4.8 | 8.0 | 0.00 | 0.00 | 0.00 | 61 | 1012.1 |
| 20260509172941 | 27 | 107 | 1.6 | 6.4 | 0.00 | 0.00 | 0.00 | 61 | 1012.1 |
| 20260509172438 | 26 | 59 | 0.0 | 8.0 | 0.00 | 0.00 | 0.00 | 64 | 1012.2 |
| 20260509171934 | 26 | 246 | 1.6 | 9.7 | 0.00 | 0.00 | 0.00 | 62 | 1012.3 |
| 20260509171430 | 26 | 167 | 6.4 | 8.0 | 0.00 | 0.00 | 0.00 | 65 | 1012.3 |
| 20260509170927 | 26 | 236 | 3.2 | 9.7 | 0.00 | 0.00 | 0.00 | 65 | 1012.5 |
| 20260509170422 | 26 | 249 | 4.8 | 4.8 | 0.00 | 0.00 | 0.00 | 65 | 1012.7 |
| 20260509165918 | 26 | 87 | 0.0 | 6.4 | 0.00 | 0.00 | 0.00 | 64 | 1012.4 |
| 20260509165412 | 26 | 70 | 1.6 | 8.0 | 0.00 | 0.00 | 0.00 | 64 | 1012.7 |
| 20260509164908 | 25 | 175 | 1.6 | 4.8 | 0.00 | 0.00 | 0.00 | 68 | 1012.7 |
| 20260509164404 | 26 | 66 | 0.0 | 4.8 | 0.00 | 0.00 | 0.00 | 65 | 1012.9 |
| 20260509163900 | 25 | 180 | 3.2 | 6.4 | 0.00 | 0.00 | 0.00 | 67 | 1012.9 |
| 20260509163357 | 25 | 229 | 4.8 | 8.0 | 0.00 | 0.00 | 0.00 | 66 | 1012.8 |
| 20260509162857 | 25 | 223 | 3.2 | 3.2 | 0.00 | 0.00 | 0.00 | 68 | 1012.8 |
| 20260509162355 | 26 | 43 | 1.6 | 8.0 | 0.00 | 0.00 | 0.00 | 63 | 1012.7 |
| 20260509161851 | 26 | 165 | 3.2 | 9.7 | 0.00 | 0.00 | 0.00 | 65 | 1012.6 |
| 20260509161348 | 25 | 238 | 3.2 | 4.8 | 0.00 | 0.00 | 0.00 | 67 | 1012.7 |
| 20260509160844 | 25 | 206 | 1.6 | 3.2 | 0.00 | 0.00 | 0.00 | 68 | 1012.9 |
| 20260509160339 | 25 | 117 | 0.0 | 9.7 | 0.00 | 0.00 | 0.00 | 69 | 1012.8 |
| 20260509155835 | 25 | 104 | 0.0 | 3.2 | 0.00 | 0.00 | 0.00 | 67 | 1012.6 |
| 20260509155331 | 25 | 284 | 1.6 | 4.8 | 0.00 | 0.00 | 0.00 | 67 | 1012.8 |
| 20260509154828 | 25 | 160 | 4.8 | 8.0 | 0.00 | 0.00 | 0.00 | 67 | 1012.8 |
| 20260509154324 | 25 | 125 | 1.6 | 6.4 | 0.00 | 0.00 | 0.00 | 67 | 1012.8 |
| 20260509153821 | 25 | 184 | 4.8 | 4.8 | 0.00 | 0.00 | 0.00 | 70 | 1012.9 |
| 20260509153318 | 24 | 170 | 0.0 | 4.8 | 0.00 | 0.00 | 0.00 | 67 | 1012.9 |
| 20260509152815 | 23 | 215 | 3.2 | 3.2 | 0.00 | 0.00 | 0.00 | 70 | 1012.9 |
| 20260509152311 | 23 | 78 | 3.2 | 4.8 | 0.00 | 0.00 | 0.00 | 69 | 1013.2 |
| 20260509151808 | 24 | 173 | 4.8 | 8.0 | 0.00 | 0.00 | 0.00 | 69 | 1012.9 |
| 20260509151304 | 25 | 167 | 3.2 | 4.8 | 0.00 | 0.00 | 0.00 | 68 | 1013.0 |
| 20260509150803 | 23 | 149 | 4.8 | 6.4 | 0.00 | 0.00 | 0.00 | 71 | 1012.8 |
| 20260509150301 | 23 | 86 | 3.2 | 4.8 | 0.00 | 0.00 | 0.00 | 71 | 1013.0 |
| 20260509145758 | 22 | 146 | 3.2 | 6.4 | 0.00 | 0.00 | 0.00 | 74 | 1012.9 |
| 20260509145257 | 22 | 214 | 1.6 | 3.2 | 0.00 | 0.00 | 0.00 | 75 | 1012.8 |
| 20260509144754 | 22 | 230 | 3.2 | 8.0 | 0.00 | 0.00 | 0.00 | 73 | 1012.9 |
| 20260509144251 | 23 | 214 | 3.2 | 6.4 | 0.00 | 0.00 | 0.00 | 71 | 1012.9 |
| 20260509143748 | 23 | 204 | 1.6 | 4.8 | 0.00 | 0.00 | 0.00 | 72 | 1013.1 |
| 20260509143245 | 22 | 107 | 1.6 | 3.2 | 0.00 | 0.00 | 0.00 | 76 | 1012.6 |
| 20260509142741 | 23 | 236 | 3.2 | 3.2 | 0.00 | 0.00 | 0.00 | 72 | 1013.0 |
| 20260509142237 | 23 | 170 | 3.2 | 4.8 | 0.00 | 0.00 | 0.00 | 72 | 1012.8 |
| 20260509141733 | 22 | 217 | 3.2 | 3.2 | 0.00 | 0.00 | 0.00 | 74 | 1012.8 |
| 20260509141231 | 22 | 139 | 0.0 | 6.4 | 0.00 | 0.00 | 0.00 | 75 | 1012.9 |
| 20260509140727 | 22 | 225 | 0.0 | 4.8 | 0.00 | 0.00 | 0.00 | 76 | 1012.9 |
| 20260509140225 | 21 | 220 | 1.6 | 3.2 | 0.00 | 0.00 | 0.00 | 77 | 1012.8 |
| 20260509135722 | 21 | 137 | 3.2 | 6.4 | 0.00 | 0.00 | 0.00 | 78 | 1012.9 |
| 20260509135220 | 21 | 48 | 3.2 | 6.4 | 0.00 | 0.00 | 0.00 | 78 | 1012.9 |
| 20260509134716 | 21 | 98 | 3.2 | 4.8 | 0.00 | 0.00 | 0.00 | 77 | 1012.7 |
| 20260509134214 | 21 | 49 | 0.0 | 3.2 | 0.00 | 0.00 | 0.00 | 77 | 1012.6 |
| 20260509133711 | 21 | 62 | 3.2 | 3.2 | 0.00 | 0.00 | 0.00 | 78 | 1012.6 |
| 20260509133208 | 20 | 154 | 0.0 | 1.6 | 0.00 | 0.00 | 0.00 | 85 | 1012.6 |
| 20260509132706 | 18 | 230 | 0.0 | 4.8 | 0.00 | 0.00 | 0.00 | 87 | 1012.8 |
| 20260509132204 | 18 | 220 | 3.2 | 4.8 | 0.00 | 0.00 | 0.00 | 86 | 1012.8 |
| 20260509131700 | 18 | 199 | 0.0 | 1.6 | 0.00 | 0.00 | 0.00 | 88 | 1013.0 |
| 20260509131157 | 17 | 202 | 0.0 | 4.8 | 0.00 | 0.00 | 0.00 | 91 | 1012.5 |
| 20260509130653 | 17 | 216 | 3.2 | 4.8 | 0.00 | 0.00 | 0.00 | 89 | 1012.3 |
| 20260509130149 | 17 | 215 | 0.0 | 0.0 | 0.00 | 0.00 | 0.00 | 90 | 1012.5 |
| 20260509125646 | 17 | 215 | 0.0 | 3.2 | 0.00 | 0.00 | 0.00 | 90 | 1012.1 |
| 20260509125143 | 17 | 89 | 0.0 | 1.6 | 0.00 | 0.00 | 0.00 | 91 | 1011.9 |
| 20260509124639 | 16 | 230 | 0.0 | 1.6 | 0.00 | 0.00 | 0.00 | 93 | 1011.8 |
| 20260509124136 | 16 | 205 | 0.0 | 1.6 | 0.00 | 0.00 | 0.00 | 94 | 1012.0 |
| 20260509123634 | 16 | 212 | 0.0 | 1.6 | 0.00 | 0.00 | 0.00 | 94 | 1011.3 |
| 20260509123131 | 16 | 139 | 0.0 | 0.0 | 0.00 | 0.00 | 0.00 | 96 | 1011.3 |
| 20260509122626 | 16 | 142 | 0.0 | 0.0 | 0.00 | 0.00 | 0.00 | 96 | 1011.2 |
| 20260509122124 | 15 | 141 | 0.0 | 0.0 | 0.00 | 0.00 | 0.00 | 96 | 1010.9 |
| 20260509121620 | 15 | 225 | 0.0 | 1.6 | 0.00 | 0.00 | 0.00 | 96 | 1011.1 |
| 20260509121118 | 15 | 119 | 0.0 | 3.2 | 0.00 | 0.00 | 0.00 | 96 | 1011.2 |
| 20260509120616 | 15 | 89 | 0.0 | 1.6 | 0.00 | 0.00 | 0.00 | 96 | 1011.2 |
| 20260509120114 | 15 | 212 | 0.0 | 3.2 | 0.00 | 0.00 | 0.00 | 96 | 1011.2 |
| 20260509115611 | 15 | 129 | 0.0 | 0.0 | 0.00 | 0.00 | 0.00 | 96 | 1011.0 |
| 20260509115109 | 15 | 113 | 0.0 | 1.6 | 0.00 | 0.00 | 0.00 | 96 | 1011.0 |
| 20260509114607 | 15 | 129 | 0.0 | 0.0 | 0.00 | 0.00 | 0.00 | 96 | 1010.9 |
| 20260509114106 | 15 | 226 | 0.0 | 1.6 | 0.00 | 0.00 | 0.00 | 96 | 1010.7 |
| 20260509113603 | 15 | 131 | 1.6 | 3.2 | 0.00 | 0.00 | 0.00 | 96 | 1010.9 |
| 20260509113100 | 15 | 100 | 3.2 | 4.8 | 0.00 | 0.00 | 0.00 | 96 | 1010.6 |
| 20260509112556 | 15 | 212 | 0.0 | 3.2 | 0.05 | 0.00 | 0.00 | 96 | 1010.8 |
| 20260509112054 | 15 | 129 | 0.0 | 3.2 | 0.05 | 0.00 | 0.00 | 96 | 1010.7 |
| 20260509111551 | 15 | 50 | 3.2 | 6.4 | 0.00 | 0.00 | 0.00 | 96 | 1010.5 |
| 20260509111048 | 15 | 77 | 4.8 | 6.4 | 0.00 | 0.00 | 0.00 | 96 | 1010.6 |
| 20260509110545 | 15 | 77 | 4.8 | 4.8 | 0.00 | 0.00 | 0.00 | 96 | 1010.6 |
| 20260509110042 | 15 | 79 | 3.2 | 4.8 | 0.00 | 0.00 | 0.00 | 96 | 1010.8 |
| 20260509105540 | 16 | 142 | 1.6 | 6.4 | 0.00 | 0.00 | 0.00 | 96 | 1010.4 |
| 20260509105037 | 16 | 49 | 3.2 | 6.4 | 0.00 | 0.00 | 0.00 | 96 | 1010.4 |
| 20260509104534 | 16 | 116 | 4.8 | 6.4 | 0.00 | 0.00 | 0.00 | 96 | 1010.3 |
| 20260509104031 | 15 | 75 | 6.4 | 8.0 | 0.00 | 0.00 | 0.00 | 96 | 1010.4 |
| 20260509103529 | 15 | 70 | 4.8 | 8.0 | 0.00 | 0.00 | 0.00 | 96 | 1010.3 |
| 20260509103027 | 15 | 102 | 3.2 | 6.4 | 0.00 | 0.00 | 0.00 | 96 | 1010.2 |
| 20260509102524 | 15 | 88 | 4.8 | 8.0 | 0.00 | 0.00 | 0.00 | 96 | 1010.2 |
| 20260509102020 | 15 | 51 | 4.8 | 8.0 | 0.00 | 0.00 | 0.00 | 96 | 1010.3 |
| 20260509101517 | 15 | 58 | 4.8 | 6.4 | 0.00 | 0.00 | 0.00 | 96 | 1010.2 |
| 20260509101014 | 15 | 72 | 4.8 | 8.0 | 0.00 | 0.00 | 0.00 | 96 | 1010.1 |
| 20260509100511 | 15 | 87 | 3.2 | 8.0 | 0.00 | 0.00 | 0.00 | 96 | 1010.0 |
| 20260509100008 | 15 | 94 | 6.4 | 8.0 | 0.00 | 0.00 | 0.00 | 95 | 1010.1 |
| 20260509095504 | 15 | 62 | 3.2 | 8.0 | 0.00 | 0.00 | 0.00 | 95 | 1010.2 |
| 20260509095002 | 15 | 70 | 3.2 | 6.4 | 0.00 | 0.00 | 0.00 | 95 | 1010.2 |
| 20260509094458 | 15 | 59 | 4.8 | 6.4 | 0.00 | 0.00 | 0.00 | 95 | 1010.0 |
| 20260509093956 | 15 | 72 | 4.8 | 6.4 | 0.00 | 0.00 | 0.00 | 95 | 1010.4 |
| 20260509093454 | 15 | 62 | 3.2 | 4.8 | 0.00 | 0.00 | 0.00 | 95 | 1010.5 |
| 20260509092951 | 15 | 113 | 3.2 | 6.4 | 0.00 | 0.00 | 0.00 | 94 | 1010.5 |
| 20260509092449 | 15 | 79 | 3.2 | 4.8 | 0.00 | 0.00 | 0.00 | 94 | 1010.7 |
| 20260509091947 | 16 | 70 | 1.6 | 4.8 | 0.00 | 0.00 | 0.00 | 94 | 1010.7 |
| 20260509091443 | 16 | 62 | 1.6 | 6.4 | 0.00 | 0.00 | 0.00 | 94 | 1010.9 |
| 20260509090941 | 16 | 95 | 8.0 | 8.0 | 0.00 | 0.00 | 0.00 | 94 | 1010.4 |
| 20260509090438 | 16 | 61 | 3.2 | 8.0 | 0.00 | 0.00 | 0.00 | 94 | 1010.5 |
| 20260509085936 | 16 | 70 | 4.8 | 4.8 | 0.00 | 0.00 | 0.00 | 95 | 1010.8 |
| 20260509085432 | 16 | 56 | 4.8 | 4.8 | 0.00 | 0.00 | 0.00 | 94 | 1010.8 |
| 20260509084928 | 16 | 49 | 4.8 | 8.0 | 0.00 | 0.00 | 0.00 | 94 | 1010.7 |
| 20260509084426 | 16 | 42 | 4.8 | 8.0 | 0.00 | 0.00 | 0.00 | 94 | 1010.6 |
| 20260509083923 | 16 | 35 | 3.2 | 6.4 | 0.00 | 0.00 | 0.00 | 94 | 1010.7 |
| 20260509083420 | 16 | 107 | 6.4 | 8.0 | 0.00 | 0.00 | 0.00 | 95 | 1011.0 |
| 20260509082917 | 16 | 37 | 4.8 | 6.4 | 0.00 | 0.00 | 0.00 | 95 | 1010.7 |
| 20260509082414 | 16 | 77 | 3.2 | 3.2 | 0.00 | 0.00 | 0.00 | 95 | 1010.8 |
| 20260509081911 | 16 | 99 | 1.6 | 3.2 | 0.00 | 0.00 | 0.00 | 95 | 1010.7 |
| 20260509081408 | 16 | 125 | 0.0 | 1.6 | 0.00 | 0.00 | 0.00 | 95 | 1010.9 |
| 20260509080906 | 16 | 147 | 0.0 | 0.0 | 0.00 | 0.00 | 0.00 | 95 | 1010.9 |
| 20260509080403 | 16 | 212 | 0.0 | 0.0 | 0.00 | 0.00 | 0.00 | 95 | 1010.8 |
| 20260509075902 | 16 | 89 | 0.0 | 1.6 | 0.00 | 0.00 | 0.00 | 95 | 1011.0 |
| 20260509075358 | 16 | 89 | 0.0 | 1.6 | 0.00 | 0.00 | 0.00 | 95 | 1010.9 |
| 20260509074856 | 16 | 115 | 0.0 | 3.2 | 0.00 | 0.00 | 0.00 | 95 | 1010.9 |
| 20260509074353 | 16 | 142 | 0.0 | 0.0 | 0.00 | 0.00 | 0.00 | 95 | 1010.8 |
| 20260509073849 | 16 | 217 | 0.0 | 1.6 | 0.00 | 0.00 | 0.00 | 95 | 1010.7 |
| 20260509073346 | 16 | 142 | 0.0 | 0.0 | 0.00 | 0.00 | 0.00 | 95 | 1010.9 |
| 20260509072842 | 16 | 212 | 0.0 | 0.0 | 0.00 | 0.00 | 0.00 | 94 | 1010.7 |
| 20260509072339 | 16 | 129 | 0.0 | 1.6 | 0.00 | 0.00 | 0.00 | 94 | 1010.9 |